FW6082 Weather Reports


time (UTC)temp
C
wind
direction
speed
KPH
gust
KPH
rain 1hr
cm
rain 24hr
cm
rain mn
cm
humidity
%
barometer
mb
20260503231542 19 259 0.0 4.8 0.00 0.00 0.00 28 1013.1
20260503230053 20 229 0.0 3.2 0.00 0.00 0.00 27 1012.7
20260503224533 21 217 0.0 1.6 0.00 0.00 0.00 26 1012.7
20260503223029 22 221 0.0 9.7 0.00 0.00 0.00 24 1012.6
20260503221526 22 208 0.0 4.8 0.00 0.00 0.00 23 1012.5
20260503220029 23 51 3.2 9.7 0.00 0.00 0.00 21 1012.3
20260503214528 24 78 4.8 16.1 0.00 0.00 0.00 19 1012.1
20260503213023 25 141 1.6 12.9 0.00 0.00 0.00 18 1011.8
20260503211507 25 207 1.6 17.7 0.00 0.00 0.00 15 1011.8
20260503210003 26 180 0.0 17.7 0.00 0.00 0.00 15 1011.6
20260503204559 26 199 4.8 17.7 0.00 0.00 0.00 14 1011.5
20260503203054 26 212 6.4 22.5 0.00 0.00 0.00 14 1011.4
20260503201552 27 188 8.0 22.5 0.00 0.00 0.00 14 1011.5
20260503200047 27 203 6.4 16.1 0.00 0.00 0.00 13 1011.4
20260503194548 27 184 11.3 20.9 0.00 0.00 0.00 12 1011.4
20260503193037 27 202 12.9 25.7 0.00 0.00 0.00 11 1011.4
20260503191532 28 180 8.0 20.9 0.00 0.00 0.00 10 1011.3
20260503190038 28 147 9.7 20.9 0.00 0.00 0.00 10 1011.3
20260503184524 28 221 3.2 19.3 0.00 0.00 0.00 9 1011.3
20260503183019 28 136 4.8 16.1 0.00 0.00 0.00 8 1011.5
20260503181531 28 131 6.4 16.1 0.00 0.00 0.00 8 1011.4
20260503180016 28 151 8.0 14.5 0.00 0.00 0.00 8 1011.5
20260503174505 28 119 6.4 17.7 0.00 0.00 0.00 8 1011.9
20260503173001 28 138 6.4 17.7 0.00 0.00 0.00 8 1012.1
20260503171556 27 148 9.7 17.7 0.00 0.00 0.00 8 1012.3
20260503170104 27 141 8.0 19.3 0.00 0.00 0.00 8 1012.4
20260503081514 7 271 0.0 3.2 0.00 0.00 0.00 31 1013.0
20260503071509 7 271 0.0 3.2 0.00 0.00 0.00 36 1013.4
20260503054503 7 271 0.0 0.0 0.00 0.00 0.00 40 1014.0
20260503053002 8 271 0.0 1.6 0.00 0.00 0.00 39 1014.0
20260503051559 7 271 0.0 3.2 0.00 0.00 0.00 42 1013.9
20260503050100 7 271 0.0 0.0 0.00 0.00 0.00 44 1013.9
20260503044613 7 271 0.0 0.0 0.00 0.00 0.00 43 1013.8
20260503043058 7 271 0.0 0.0 0.00 0.00 0.00 44 1013.6
20260503041608 8 271 0.0 0.0 0.00 0.00 0.00 45 1013.4
20260503040051 8 271 0.0 0.0 0.00 0.00 0.00 40 1013.4
20260503034542 9 271 0.0 0.0 0.00 0.00 0.00 39 1013.3
20260503033042 10 271 0.0 0.0 0.00 0.00 0.00 36 1013.4
20260503031533 10 271 0.0 1.6 0.00 0.00 0.00 36 1013.5
20260503030033 10 271 0.0 0.0 0.00 0.00 0.00 40 1013.3
20260503024525 10 271 0.0 0.0 0.00 0.00 0.00 40 1013.3
20260503023020 11 271 0.0 0.0 0.00 0.00 0.00 38 1013.2
20260503021518 11 271 0.0 3.2 0.00 0.00 0.00 35 1013.3
20260503020012 11 271 0.0 0.0 0.00 0.00 0.00 36 1013.4
20260503014507 12 271 1.6 4.8 0.00 0.00 0.00 34 1013.4
20260503013002 11 271 0.0 0.0 0.00 0.00 0.00 36 1013.5
20260503011608 12 262 0.0 0.0 0.00 0.00 0.00 39 1013.6
20260503010100 12 262 0.0 0.0 0.00 0.00 0.00 35 1013.5
20260503004551 13 262 0.0 4.8 0.00 0.00 0.00 35 1013.3
20260503003045 13 227 0.0 1.6 0.00 0.00 0.00 34 1013.0
20260503001544 15 170 0.0 0.0 0.00 0.00 0.00 32 1012.7
20260503000036 17 170 0.0 0.0 0.00 0.00 0.00 29 1012.6
20260502234538 18 170 0.0 0.0 0.00 0.00 0.00 24 1012.4
20260502233028 20 170 0.0 1.6 0.00 0.00 0.00 22 1012.3